TimeMST,TemperatureF,Dew PointF,Humidity,Sea Level PressureIn,VisibilityMPH,Wind Direction,Wind SpeedMPH,Gust SpeedMPH,PrecipitationIn,Events,Conditions,WindDirDegrees,DateUTC
12:53 AM,33.1,27.0,78,30.03,10.0,NE,9.2,-,N/A,,Mostly Cloudy,40,2013-03-08 07:53:00
1:53 AM,33.1,26.1,75,30.02,10.0,NE,11.5,-,N/A,,Mostly Cloudy,50,2013-03-08 08:53:00
2:53 AM,33.1,25.0,72,30.00,10.0,NE,10.4,-,N/A,,Mostly Cloudy,40,2013-03-08 09:53:00
3:53 AM,33.1,24.1,70,29.99,10.0,NNE,9.2,-,N/A,,Mostly Cloudy,30,2013-03-08 10:53:00
4:53 AM,32.0,24.1,73,29.99,10.0,NE,5.8,-,N/A,,Scattered Clouds,40,2013-03-08 11:53:00
5:53 AM,30.9,23.0,72,29.99,10.0,North,4.6,-,N/A,,Partly Cloudy,360,2013-03-08 12:53:00
6:53 AM,30.0,23.0,75,30.01,10.0,North,5.8,-,N/A,,Partly Cloudy,360,2013-03-08 13:53:00
7:53 AM,30.0,24.1,79,30.01,10.0,NNE,9.2,-,N/A,,Partly Cloudy,20,2013-03-08 14:53:00
8:53 AM,30.9,24.1,76,30.03,10.0,North,4.6,-,N/A,,Mostly Cloudy,350,2013-03-08 15:53:00
9:53 AM,33.1,25.0,72,30.01,10.0,NE,5.8,-,N/A,,Scattered Clouds,50,2013-03-08 16:53:00
10:53 AM,36.0,25.0,64,29.99,10.0,ENE,5.8,-,N/A,,Partly Cloudy,70,2013-03-08 17:53:00
11:53 AM,37.9,26.1,62,29.96,10.0,NNE,5.8,-,N/A,,Partly Cloudy,30,2013-03-08 18:53:00
12:53 PM,42.1,27.0,55,29.93,10.0,NNE,8.1,-,N/A,,Partly Cloudy,20,2013-03-08 19:53:00
1:53 PM,43.0,26.1,51,29.89,10.0,NE,6.9,-,N/A,,Scattered Clouds,40,2013-03-08 20:53:00
2:53 PM,44.1,26.1,49,29.88,10.0,ENE,5.8,-,N/A,,Partly Cloudy,60,2013-03-08 21:53:00
3:53 PM,44.1,26.1,49,29.88,10.0,East,6.9,-,N/A,,Partly Cloudy,100,2013-03-08 22:53:00
4:53 PM,44.1,26.1,49,29.89,10.0,ENE,6.9,-,N/A,,Partly Cloudy,70,2013-03-08 23:53:00
5:53 PM,42.1,26.1,53,29.90,10.0,NE,4.6,-,N/A,,Scattered Clouds,50,2013-03-09 00:53:00
6:53 PM,41.0,26.1,55,29.91,10.0,NNE,3.5,-,N/A,,Scattered Clouds,30,2013-03-09 01:53:00
7:53 PM,37.9,26.1,62,29.94,10.0,North,3.5,-,N/A,,Scattered Clouds,350,2013-03-09 02:53:00
8:53 PM,36.0,26.1,67,29.96,10.0,NNW,6.9,-,N/A,,Scattered Clouds,340,2013-03-09 03:53:00
9:53 PM,34.0,26.1,73,29.96,10.0,NNE,6.9,-,N/A,,Partly Cloudy,20,2013-03-09 04:53:00
10:53 PM,28.9,23.0,78,29.97,10.0,NW,8.1,-,N/A,,Clear,310,2013-03-09 05:53:00
11:53 PM,28.9,25.0,85,29.97,10.0,WNW,10.4,-,N/A,,Partly Cloudy,300,2013-03-09 06:53:00